{"data":{"norad_id":60319,"intl_designator":"2024-133U","name":"STARLINK-32182","alt_names":[],"object_type":"PAYLOAD","status":"ACTIVE","operator":null,"country":"US","launch_date":"2024-07-28","launch_site_code":"AFWTR","launch_vehicle":null,"mission":null,"orbit_class":"UNKNOWN","rcs_meters":null,"size_class":null,"mass_kg":null,"dimensions":null,"purposes":["comms"],"wikipedia_slug":null,"has_3d_model":false,"image_url":null,"decayed_at":null,"tle_current":{"epoch":"2026-09-21T22:22:09.742944Z","epoch_age_seconds":61904,"freshness":"FRESH","line1":"1 60319U 24133U   26264.93205721  .00000426  00000+0  23755-4 0  9998","line2":"2 60319  53.1599 102.8700 0001075  93.7442 266.3683 15.34389295121729","mean_motion":15.34389295,"eccentricity":0.0001075,"inclination_deg":53.1599,"raan_deg":102.87,"arg_perigee_deg":93.7442,"mean_anomaly_deg":266.3683,"bstar":2.3755e-5,"rev_number":12172,"period_min":93.848412830591,"perigee_km":461.99966416184,"apogee_km":463.47045165429,"semimajor_km":6840.8720579081,"source":"CELESTRAK","updated_at":"2026-09-22T09:00:49.217981Z"}}}